THOR ABLESTAR DEB, 38521

Orbit data source: Space-Track

THOR ABLESTAR DEB, 38521 is space debris in LEO originally from a launch on Sat, 28 Sep 1963 UTC launched from the Air Force Western Test Range (AFWTR). Debris objects in space refer to the collection of defunct objects orbiting the Earth. Examples of debris include non-operational satellites, rocket bodies, and fragments generated from explosions, collisions, or faulty payload assembly.

Loading next visibility...
Identifier
38521, 1963-038Q
Orbit
LEO
Country
Flag of USUS
Related business
Manufacturer
Unknown
Mission
Spacecraft
Bus & Motor
Unknown
Mass
Unknown
Launch date (UTC)
1963-09-28 (63 years ago)
Launch vehicle
Unknown
Launch site
Air Force Western Test Range (AFWTR)
Object type
Payload
Rocket body
Debris
Shape & HBR
Unknown shape, 0.1 m
Radar Cross Section
Small (<0.1 m²)

Expand to show TLE details & history
Last TLE update: 6 days ago

TLE from 6 days ago
0 THOR ABLESTAR DEB
1 38521U 63038Q   26248.50620666  .00000046  00000-0  61510-4 0  9999
2 38521  89.9687 332.8040 0042792 114.7042 305.0363 13.45440935646308
Epoch: 2026-09-05T12:08Z
TLE epoch observation values (Epoch: 2026-09-05T12:08:56.255Z)
Latitude
59.4283°
Longitude
166.00762°
Altitude
1,080.985 km
Speed
7.326 km/s
True Right ascension
22h 11m 25s
True Declination
59° 17' 02"
Sunlit
Object was in daylight at epoch
Visualization orbit readout
Latitude
Unknown
Longitude
Unknown
Altitude
Unknown
Speed
Unknown
Apparent Right ascension
Unknown
Apparent Declination
Unknown
Sunlit
N/A
Visualization observer readout
Local Sidereal Time
16:32:27
Azimuth
Unknown
Elevation
Unknown
Doppler factor
Unknown
Orbital elements
Apogee altitude
1,118.077 km
Perigee altitude
1,054.195 km
Semi-major axis
7,464.273 km
Eccentricity
0.00428
Inclination
89.9687°
RAAN
332.804°
Arg. of periapsis
114.7042°
True anomaly
304.63357°
Mean anomaly
305.0363°
Eccentric anomaly
304.83506°
Mean motion
3.3656 °/min
Orbital period
106.96 mins
BSTAR
0.00006151
Loading maneuver chart data...
Computing Atmospheric mass density...

Documentation

Showing up to 5 results
|